Terminal Aerodrome Forecast
Issued by NWS

Current Version | Previous Version | Graphics & Text | Print | Product List | Glossary On
Versions: 1 2 3 4 5 6 7 8 9 10 11 12 13 14 15 16 17 18 19 20 21 22 23 24
000
FTUS41 KILN 232000 AAA
TAFLUK
TAF AMD
KLUK 232059Z 2321/2418 VRB03KT P6SM SCT150 BKN250
     FM232300 00000KT P6SM BKN150
      TEMPO 2408/2412 2SM BR
     FM241600 24004KT P6SM BKN050=

USA.gov is the U.S. government's official web portal to all federal, state and local government web resources and services.